Location: Antioch Baptist Church
(32.6696°N, 85.7327°W)
Time: 21:16:24
(UTC+00:00)

ATLAS 5 CENTAUR R/B - Pass Details

Date: 14 July 2020
Orbit: 534 x 1124 km, 63.4° (Epoch: 09 August)

Event Time Altitude Azimuth Distance (km) Brightness Sun altitude
Rises 10:09:23 0° 317° (NW) 3,509 5.3 -7.5°
Reaches altitude 10° 10:12:00 10° 308° (NW) 2,654 4.6 -7.1°
Maximum altitude 10:17:34 34° 247° (WSW) 1,630 3.2 -6.0°
Drops below altitude 10° 10:23:42 10° 186° (S) 2,927 4.7 -4.9°
Sets 10:26:44 0° 177° (S) 3,920 5.4 -4.4°
